Cumberland, WV

6:46 AM EDT on October 17, 2019 (GMT -0400)
Greater Cumberland Regional

Weather History for KCBE - September, 2019

Change the Weather History Date:

Thursday, September 19, 2019

  Actual Average (WUND) Record (WUND)
Temperature  
Mean Temperature 60 °F -  
Max Temperature 75 °F - - (-1)
Min Temperature 46 °F - - (-1)
Degree Days  
Heating Degree Days 4    
Growing Degree Days 10 (Base 50)    
Moisture  
Dew Point 48 °F    
Average Humidity 67    
Maximum Humidity 96    
Minimum Humidity 37    
Precipitation  
Precipitation 0.00 in - - ()
Sea Level Pressure  
Sea Level Pressure 30.33 in    
Wind  
Wind Speed 2 mph ()    
Max Wind Speed 10 mph    
Max Gust Speed -    
Visibility 10.0 miles    
Events      
Averages and records for this station are not official NWS values.
T = Trace of Precipitation, MM = Missing Value Source: Averaged Metar Reports

Daily Weather History Graph

Daily Weather History Graph

Search for Another Location

Airport or City:

Astronomy

Sep. 19, 2019 Rise Set
Actual Time 6:59 AM EDT 7:17 PM EDT
Civil Twilight 6:32 AM EDT 7:44 PM EDT
Nautical Twilight 6:01 AM EDT 8:15 PM EDT
Astronomical Twilight 5:28 AM EDT 8:48 PM EDT
Moon 10:26 PM EDT (9/19) 12:00 PM EDT (9/19)
Length of Visible Light 13h 11m
Length of Day
12h 17m
Waning Gibbous, 74% of the Moon is Illuminated
Sep 19
Waning Gibbous
Sep 21
Last Quarter
Sep 28
New
Oct 5
First Quarter
Oct 13
Full

Hourly Weather History & Observations

Time (EDT) Temp. Dew Point Humidity Pressure Visibility Wind Dir Wind Speed Gust Speed Precip Events Conditions
12:00 AM 54.9 °F 47.1 °F 75% 30.30 in 10.0 mi Calm Calm - N/A   Clear
12:20 AM 54.3 °F 46.9 °F 76% 30.30 in 10.0 mi Calm Calm - N/A   Clear
12:40 AM 53.2 °F 46.8 °F 79% 30.30 in 10.0 mi Calm Calm - N/A   Clear
1:00 AM 51.3 °F 46.4 °F 83% 30.31 in 10.0 mi Calm Calm - N/A   Clear
1:20 AM 53.1 °F 46.6 °F 79% 30.31 in 10.0 mi WSW 3.5 mph - N/A   Clear
1:40 AM 51.6 °F 46.0 °F 81% 30.31 in 10.0 mi WSW 3.5 mph - N/A   Clear
2:00 AM 52.7 °F 46.8 °F 80% 30.31 in 10.0 mi Calm Calm - N/A   Clear
2:20 AM 50.5 °F 46.4 °F 86% 30.31 in 10.0 mi Calm Calm - N/A   Clear
2:40 AM 49.6 °F 46.8 °F 90% 30.31 in 10.0 mi Calm Calm - N/A   Clear
3:00 AM 49.3 °F 47.1 °F 92% 30.31 in 10.0 mi Calm Calm - N/A   Clear
3:20 AM 48.9 °F 46.4 °F 91% 30.31 in 10.0 mi Calm Calm - N/A   Clear
3:40 AM 48.0 °F 46.0 °F 93% 30.31 in 10.0 mi Calm Calm - N/A   Clear
4:00 AM 48.4 °F 46.2 °F 92% 30.32 in 10.0 mi Calm Calm - N/A   Clear
4:20 AM 47.7 °F 45.3 °F 92% 30.32 in 10.0 mi Calm Calm - N/A   Clear
4:40 AM 47.1 °F 45.7 °F 95% 30.32 in 10.0 mi Calm Calm - N/A   Clear
5:00 AM 47.1 °F 45.9 °F 95% 30.32 in 10.0 mi Calm Calm - N/A   Clear
5:20 AM 47.5 °F 45.7 °F 93% 30.33 in 10.0 mi Calm Calm - N/A   Clear
5:40 AM 46.6 °F 45.5 °F 96% 30.33 in 10.0 mi Calm Calm - N/A   Clear
6:00 AM 46.6 °F 45.0 °F 94% 30.34 in 10.0 mi Calm Calm - N/A   Clear
6:20 AM 47.5 °F 46.4 °F 96% 30.35 in 10.0 mi Calm Calm - N/A   Mostly Cloudy
6:40 AM 48.9 °F 47.3 °F 94% 30.35 in 10.0 mi Calm Calm - N/A   Overcast
7:00 AM 48.2 °F 46.4 °F 93% 30.35 in 10.0 mi Calm Calm - N/A   Overcast
7:20 AM 49.6 °F 48.0 °F 94% 30.36 in 10.0 mi Calm Calm - N/A   Overcast
7:40 AM 50.0 °F 48.2 °F 94% 30.36 in 10.0 mi Calm Calm - N/A   Overcast
8:00 AM 51.6 °F 48.7 °F 90% 30.36 in 10.0 mi Calm Calm - N/A   Overcast
8:20 AM 52.9 °F 49.1 °F 87% 30.36 in 10.0 mi Calm Calm - N/A   Overcast
8:40 AM 55.6 °F 50.2 °F 82% 30.37 in 10.0 mi Calm Calm - N/A   Overcast
9:00 AM 57.9 °F 51.1 °F 78% 30.37 in 10.0 mi Calm Calm - N/A   Overcast
9:20 AM 58.6 °F 51.8 °F 78% 30.38 in 10.0 mi Calm Calm - N/A   Overcast
9:40 AM 59.5 °F 52.2 °F 77% 30.38 in 10.0 mi Calm Calm - N/A   Overcast
10:00 AM 62.2 °F 52.7 °F 71% 30.38 in 10.0 mi WSW 5.8 mph - N/A   Overcast
10:20 AM 64.0 °F 53.1 °F 67% 30.38 in 10.0 mi WSW 4.6 mph - N/A   Mostly Cloudy
10:40 AM 65.1 °F 52.5 °F 64% 30.37 in 10.0 mi WSW 8.1 mph - N/A   Mostly Cloudy
11:00 AM 66.0 °F 52.5 °F 62% 30.37 in 10.0 mi WSW 10.4 mph - N/A   Mostly Cloudy
11:20 AM 66.4 °F 51.8 °F 59% 30.37 in 10.0 mi WSW 6.9 mph - N/A   Mostly Cloudy
11:40 AM 68.5 °F 50.9 °F 53% 30.36 in 10.0 mi WSW 6.9 mph - N/A   Mostly Cloudy
12:00 PM 69.4 °F 49.8 °F 50% 30.37 in 10.0 mi WSW 8.1 mph - N/A   Mostly Cloudy
12:20 PM 68.4 °F 49.8 °F 51% 30.36 in 10.0 mi WSW 6.9 mph - N/A   Mostly Cloudy
1:00 PM 71.4 °F 49.5 °F 46% 30.35 in 10.0 mi WSW 10.4 mph - N/A   Scattered Clouds
1:20 PM 70.9 °F 49.5 °F 47% 30.34 in 10.0 mi WSW 9.2 mph - N/A   Scattered Clouds
1:40 PM 72.1 °F 48.6 °F 43% 30.33 in 10.0 mi WSW 6.9 mph - N/A   Scattered Clouds
2:00 PM 72.7 °F 49.3 °F 44% 30.33 in 10.0 mi WSW 8.1 mph - N/A   Scattered Clouds
2:20 PM 72.5 °F 48.0 °F 42% 30.33 in 10.0 mi WSW 9.2 mph - N/A   Clear
2:40 PM 73.4 °F 48.6 °F 41% 30.32 in 10.0 mi WSW 6.9 mph - N/A   Clear
3:00 PM 73.8 °F 48.4 °F 41% 30.31 in 10.0 mi WSW 6.9 mph - N/A   Clear
4:00 PM 75.4 °F 47.7 °F 37% 30.29 in 10.0 mi WSW 5.8 mph - N/A   Clear
4:20 PM 75.4 °F 47.8 °F 38% 30.29 in 10.0 mi WSW 8.1 mph - N/A   Clear
4:40 PM 75.0 °F 47.3 °F 37% 30.28 in 10.0 mi WSW 6.9 mph - N/A   Clear
5:00 PM 74.5 °F 46.8 °F 37% 30.28 in 10.0 mi WSW 10.4 mph - N/A   Clear
5:20 PM 74.5 °F 46.8 °F 37% 30.29 in 10.0 mi WSW 5.8 mph - N/A   Clear
5:40 PM 74.3 °F 47.1 °F 38% 30.29 in 10.0 mi WSW 5.8 mph - N/A   Clear
6:00 PM 73.0 °F 46.8 °F 39% 30.29 in 10.0 mi WSW 6.9 mph - N/A   Clear
6:20 PM 72.3 °F 46.9 °F 40% 30.29 in 10.0 mi WSW 4.6 mph - N/A   Clear
6:40 PM 71.1 °F 46.6 °F 42% 30.29 in 10.0 mi WSW 6.9 mph - N/A   Clear
7:00 PM 69.4 °F 46.0 °F 43% 30.29 in 10.0 mi WSW 4.6 mph - N/A   Clear
7:15 PM 68.4 °F 46.0 °F 45% 30.29 in 10.0 mi WSW 5.8 mph - N/A   Clear
7:40 PM 67.3 °F 46.2 °F 47% 30.29 in 10.0 mi WSW 3.5 mph - N/A   Clear
8:00 PM 66.2 °F 46.2 °F 49% 30.29 in 10.0 mi WSW 3.5 mph - N/A   Clear
8:20 PM 65.5 °F 46.4 °F 50% 30.30 in 10.0 mi WSW 3.5 mph - N/A   Clear
9:00 PM 64.0 °F 46.9 °F 54% 30.31 in 10.0 mi WSW 3.5 mph - N/A   Clear
9:20 PM 63.7 °F 47.1 °F 55% 30.31 in 10.0 mi Calm Calm - N/A   Clear
9:40 PM 62.4 °F 46.9 °F 57% 30.32 in 10.0 mi Calm Calm - N/A   Clear
10:00 PM 61.0 °F 47.1 °F 60% 30.32 in 10.0 mi Calm Calm - N/A   Clear
10:20 PM 58.3 °F 47.8 °F 68% 30.32 in 10.0 mi Calm Calm - N/A   Clear
10:40 PM 56.1 °F 47.7 °F 73% 30.32 in 10.0 mi WSW 3.5 mph - N/A   Clear
11:00 PM 55.9 °F 47.7 °F 74% 30.31 in 10.0 mi WSW 3.5 mph - N/A   Clear
11:20 PM 53.6 °F 48.2 °F 82% 30.31 in 10.0 mi Calm Calm - N/A   Clear
11:40 PM 54.0 °F 47.8 °F 80% 30.32 in 10.0 mi WSW 3.5 mph - N/A   Clear